星链-32435 (STARLINK-32435)

导读

STARLINK-32435是美国SpaceX公司于2024年9月25日发射的星链(Starlink)系列卫星,属于第二代星链星座部署的组成部分。星链项目旨在构建覆盖全球的低轨卫星互联网星座,为全球提供高速宽带通信服务,已扩展至航空、航运、应急通信等领域。该卫星配备先进通信技术,助力星链实现全球无缝覆盖,推动天地一体化网络建设,目前已稳定在轨运行。

基本信息
目录编号:
61259
目录名称:
STARLINK-32435
国际标识:
2024-175S
轨道中心:
EARTH
卫星名称:
星链-32435
卫星全名:
星链-32435 (STARLINK-32435)
卫星状态:
在轨 (已飞行717 天)
发射日期:
2024-09-25 UTC
国别 :
美国 (US)
星等 :
--
该卫星已列入 空间交会检测服务 Space Conjunction Data Service (SCDS) ,当前飞行风险评估等级: 无高风险
轨道信息
数据来源 国际轨道数据 AOE轨道数据
星历时间 2026-09-11T18:49:44+0800
16小时前
查看轨道信息
2026-09-07T02:00:00+0800
5天前
查看轨道信息
半长轴 6840.882km 6840.87km
偏心率 0.000125 0.0001115
轨道倾角 53.161° 53.159°
近地点辐角 93.381° 80.268°
升交点赤经 47.716° 69.694°
平近点角 266.734° 216.764°
近地点 461.889km 461.97km
远地点 463.601km 463.496km
周期 93.849分钟 93.848分钟
每日圈数 15.343862 15.3439
详细信息
固有亮度:
5
最大亮度:
2.5
卫星平台:
Starlink V1.0
覆盖范围:
全球
运营商:
太空探索技术公司
运营商所在国:
美国
制造商(研发单位):
太空探索技术公司
制造商所在国:
美国
使用方式:
暂无
卫星简介
Starlink 计划是 SpaceX 推出的全球卫星互联网项目,通过发射低轨道卫星,为全球尤其是偏远地区提供高速、低延迟的互联网服务。自 2019 年起,Starlink 已部署数千颗卫星,旨在缩小全球数字鸿沟,推动互联网普及。该项目还为军事、航空等行业提供通信支持,带来广泛经济效益。
2D轨道图
3D轨道图
轨道高度分析图
轨道倾角分析图
轨道综合分析图
查看轨道综合分析图
交会数据列表
事件ID 空间交会对象 最接近时刻(TCA) 交会距离 交会风险概率(CRP) 交会风险指数(CRI) 操作
CDM_260913-180206-125906-551621
2026-09-13T
18:02:46+0000
0.211 km
中距离
6.089607E-4 高风险 0.91
CDM_260913-061906-125906-551621
2026-09-13T
06:19:19+0000
0.546 km
远距离
1.11674E-4 高风险 0.76
CDM_260912-205106-125906-324022
2026-09-12T
20:51:17+0000
1.292 km
极远距离
9.874076E-6 低风险 0.55
CDM_260914-011406-125906-924921
2026-09-14T
01:14:56+0000
1.464 km
极远距离
6.215056E-6 低风险 0.51
CDM_260913-044506-125906-551621
2026-09-13T
04:45:32+0000
2.581 km
极远距离
1.13483E-6 低风险 0.36
CDM_260913-075306-125906-551621
2026-09-13T
07:53:07+0000
2.598 km
极远距离
1.123136E-6 低风险 0.36
CDM_260912-030105-261106-125922
2026-09-12T
03:01:50+0000
2.903 km
极远距离
1.12112E-6 低风险 0.36
CDM_260913-162806-125906-551621
2026-09-13T
16:28:58+0000
2.758 km
极远距离
1.029964E-6 低风险 0.35
CDM_260912-090405-265906-125923
2026-09-12T
09:04:54+0000
2.729 km
极远距离
5.063492E-7 极低风险 0.29
与全量物体交会距离演化趋势
与全量物体交会风险概率演化趋势